Total_Precipitation_Accumulation
0.04 0.01 0.00 0.00 0.00 0.01 0.03 0.01 0.00 0.00 0.00 0.00 0.00 0.00 0.00 0.00 0.00 0.00 0.00 0.00 0.00 0.00 0.00 0.00 0.00 0.00 0.00 0.00 0.00 0.00 0.00 0.00 0.00 0.00 0.00 0.00 0.00 0.00 0.00 0.00 0.00 0.00
0.04 0.03 0.02 0.01 0.01 0.00 0.00 0.00 0.00 0.00 0.00 0.00 0.00 0.00 0.00 0.00 0.00 0.00 0.00 0.00 0.00 0.00 0.00 0.00 0.00 0.00 0.00 0.00 0.00 0.00 0.00 0.00 0.00 0.00 0.00 0.00 0.00 0.00 0.00 0.00 0.00 0.00
0.03 0.01 0.02 0.02 0.03 0.00 0.01 0.02 0.00 0.00 0.00 0.00 0.00 0.00 0.00 0.00 0.00 0.00 0.00 0.00 0.00 0.00 0.00 0.00 0.00 0.00 0.00 0.00 0.00 0.00 0.00 0.00 0.00 0.00 0.00 0.00 0.00 0.00 0.00 0.00 0.00 0.00
0.09 0.04 0.02 0.03 0.00 0.02 0.03 0.00 0.02 0.02 0.00 0.00 0.00 0.00 0.00 0.00 0.00 0.00 0.00 0.00 0.00 0.00 0.00 0.00 0.00 0.00 0.00 0.00 0.00 0.00 0.00 0.00 0.00 0.00 0.00 0.00 0.00 0.00 0.00 0.00 0.00 0.00
0.11 0.01 0.04 0.04 0.04 0.04 0.04 0.05 0.04 0.01 0.00 0.00 0.00 0.00 0.00 0.00 0.00 0.00 0.00 0.00 0.00 0.00 0.00 0.00 0.00 0.00 0.00 0.00 0.00 0.00 0.00 0.00 0.00 0.00 0.00 0.00 0.00 0.00 0.00 0.00 0.00 0.00
0.07 0.05 0.09 0.06 0.02 0.04 0.06 0.01 0.00 0.00 0.00 0.00 0.00 0.00 0.00 0.00 0.00 0.00 0.00 0.00 0.00 0.00 0.00 0.00 0.00 0.00 0.00 0.00 0.00 0.00 0.00 0.00 0.00 0.00 0.00 0.00 0.00 0.00 0.00 0.00 0.00 0.00
0.06 0.06 0.05 0.02 0.04 0.04 0.01 0.03 0.03 0.00 0.00 0.00 0.00 0.00 0.00 0.00 0.00 0.00 0.00 0.00 0.00 0.00 0.00 0.00 0.00 0.00 0.00 0.00 0.00 0.00 0.00 0.00 0.00 0.00 0.00 0.00 0.00 0.00 0.00 0.00 0.00 0.00
0.01 0.03 0.05 0.03 0.00 0.06 0.04 0.08 0.02 0.00 0.01 0.00 0.00 0.00 0.01 0.00 0.00 0.00 0.00 0.00 0.00 0.00 0.00 0.00 0.00 0.00 0.00 0.00 0.00 0.00 0.00 0.00 0.00 0.00 0.00 0.00 0.00 0.00 0.00 0.00 0.00 0.00
0.03 0.01 0.00 0.03 0.01 0.01 0.07 0.11 0.04 0.15 0.04 0.01 0.01 0.01 0.01 0.00 0.01 0.01 0.01 0.00 0.00 0.00 0.00 0.00 0.00 0.00 0.00 0.00 0.00 0.00 0.00 0.00 0.00 0.00 0.00 0.00 0.00 0.00 0.00 0.00 0.00 0.00
0.21 0.09 0.04 0.03 0.04 0.04 0.07 0.01 0.01 0.04 0.06 0.15 0.04 0.09 0.01 0.01 0.01 0.00 0.00 0.00 0.00 0.00 0.00 0.00 0.00 0.00 0.00 0.00 0.00 0.00 0.00 0.00 0.00 0.00 0.00 0.00 0.00 0.00 0.00 0.00 0.00 0.00
0.30 0.39 0.22 0.18 0.18 0.24 0.07 0.03 0.02 0.10 0.28 0.29 0.10 0.13 0.14 0.10 0.01 0.00 0.00 0.00 0.01 0.01 0.00 0.00 0.00 0.00 0.00 0.00 0.00 0.00 0.00 0.00 0.00 0.00 0.00 0.00 0.00 0.00 0.00 0.00 0.00 0.00
0.48 0.54 0.37 0.28 0.42 0.42 0.39 0.57 0.42 0.32 0.27 0.16 0.07 0.17 0.13 0.09 0.07 0.12 0.05 0.11 0.18 0.01 0.03 0.04 0.02 0.00 0.00 0.00 0.00 0.00 0.00 0.00 0.00 0.00 0.01 0.01 0.01 0.00 0.00 0.00 0.00 0.00
0.13 0.21 0.44 0.95 1.10 1.00 0.83 0.63 0.71 0.77 0.71 0.54 0.31 0.25 0.36 0.52 0.47 0.37 0.32 0.19 0.09 0.02 0.02 0.01 0.06 0.08 0.03 0.02 0.02 0.04 0.02 0.02 0.02 0.02 0.01 0.00 0.01 0.01 0.01 0.00 0.01 0.01
0.29 0.76 0.73 0.59 0.51 0.62 0.86 0.79 0.95 0.84 0.77 0.69 0.75 0.51 0.56 0.50 0.50 0.45 0.39 0.21 0.19 0.19 0.20 0.14 0.10 0.17 0.17 0.14 0.12 0.15 0.07 0.05 0.05 0.03 0.04 0.04 0.04 0.03 0.06 0.26 0.29 0.05
0.63 0.55 0.34 0.29 0.27 0.46 0.82 0.95 0.72 0.54 0.53 0.56 0.46 0.38 0.41 0.37 0.41 0.47 0.21 0.18 0.16 0.14 0.14 0.26 0.14 0.18 0.12 0.25 0.20 0.19 0.12 0.12 0.15 0.12 0.09 0.06 0.04 0.01 0.01 0.05 0.05 0.10
0.15 0.11 0.29 0.12 0.34 0.23 0.11 0.21 0.21 0.39 0.32 0.32 0.36 0.38 0.31 0.29 0.23 0.24 0.27 0.32 0.22 0.17 0.58 0.38 0.65 0.22 0.22 0.10 0.08 0.12 0.14 0.13 0.06 0.08 0.05 0.03 0.02 0.02 0.03 0.04 0.02 0.01
0.01 0.00 0.00 0.01 0.02 0.00 0.01 0.03 0.01 0.01 0.02 0.03 0.05 0.10 0.19 0.38 0.35 0.38 0.23 1.03 0.46 0.32 0.19 0.08 0.05 0.03 0.03 0.03 0.02 0.01 0.01 0.01 0.15 0.09 0.03 0.01 0.03 0.02 0.01 0.01 0.00 0.00
0.00 0.00 0.00 0.00 0.01 0.00 0.00 0.01 0.03 0.01 0.10 0.21 0.05 0.18 0.61 0.48 0.05 0.10 0.37 0.43 0.44 0.33 0.31 0.31 0.21 0.13 0.09 0.07 0.01 0.00 0.01 0.08 0.05 0.02 0.01 0.01 0.01 0.01 0.00 0.00 0.00 0.00
0.00 0.00 0.00 0.00 0.00 0.00 0.00 0.00 0.00 0.00 0.00 0.01 0.01 0.05 0.09 0.08 0.18 0.09 0.03 0.01 0.04 0.22 0.12 0.07 0.05 0.03 0.09 0.11 0.15 0.14 0.14 0.14 0.05 0.06 0.04 0.06 0.01 0.00 0.02 0.01 0.00 0.00
0.00 0.00 0.00 0.00 0.00 0.00 0.00 0.00 0.00 0.00 0.00 0.00 0.01 0.00 0.00 0.01 0.00 0.00 0.01 0.03 0.01 0.02 0.05 0.07 0.22 0.11 0.16 0.12 0.08 0.05 0.05 0.07 0.04 0.00 0.01 0.02 0.01 0.01 0.02 0.00 0.00 0.00
0.00 0.00 0.00 0.00 0.00 0.00 0.00 0.00 0.00 0.00 0.00 0.00 0.00 0.00 0.00 0.00 0.00 0.00 0.01 0.10 0.22 0.17 0.08 0.01 0.06 0.14 0.05 0.08 0.07 0.02 0.02 0.01 0.05 0.05 0.02 0.00 0.03 0.02 0.02 0.00 0.00 0.01
0.00 0.00 0.00 0.00 0.00 0.00 0.00 0.00 0.00 0.00 0.00 0.00 0.00 0.00 0.00 0.00 0.00 0.00 0.01 0.02 0.03 0.05 0.10 0.76 0.56 0.21 0.16 0.10 0.00 0.00 0.19 0.03 0.03 0.03 0.12 0.01 0.12 0.11 0.06 0.06 0.03 0.04
0.00 0.00 0.00 0.00 0.00 0.00 0.00 0.00 0.00 0.00 0.00 0.00 0.00 0.00 0.00 0.00 0.00 0.00 0.01 0.02 0.01 0.01 0.02 0.06 0.02 0.06 0.01 0.00 0.00 0.00 0.12 0.03 0.01 0.05 0.01 0.00 0.05 0.02 0.00 0.00 0.00 0.00
0.00 0.00 0.00 0.00 0.00 0.00 0.00 0.00 0.00 0.00 0.00 0.00 0.00 0.00 0.00 0.00 0.00 0.01 0.00 0.01 0.01 0.02 0.05 0.13 0.14 0.03 0.00 0.00 0.00 0.00 0.01 0.03 0.02 0.01 0.00 0.00 0.00 0.01 0.00 0.01 0.00 0.00
0.00 0.00 0.00 0.00 0.00 0.00 0.00 0.00 0.00 0.00 0.00 0.00 0.00 0.00 0.00 0.01 0.00 0.01 0.01 0.00 0.00 0.01 0.00 0.00 0.00 0.00 0.00 0.00 0.00 0.00 0.04 0.05 0.09 0.05 0.00 0.00 0.00 0.00 0.00 0.00 0.00 0.00
0.01 0.00 0.00 0.00 0.00 0.00 0.00 0.00 0.00 0.00 0.00 0.00 0.00 0.00 0.02 0.03 0.01 0.01 0.01 0.00 0.00 0.00 0.00 0.00 0.00 0.00 0.00 0.00 0.00 0.00 0.00 0.08 0.01 0.00 0.00 0.00 0.00 0.00 0.00 0.00 0.00 0.00